Flag for Iran Weather past 2 weeks in Mashhad, Iran

34 °F


Feels Like: 30 °F
Forecast: 29 / 63 °F
Wind: 5 mph from Southwest

Location: Mashhad Airport

Current Time: Nov 26, 2015 at 6:52:12 AM

Latest Report: Nov 26, 2015 at 6:30 AM

Visibility: 10 mi

Pressure: 30.18 "Hg (26.71 "Hg at 981m altitude)

Humidity: 87%

Dew point: 30 °F

Location of MashhadLocation

Historic Weather in Mashhad — Graph


Mashhad temperature yesterday

Maximum temperature yesterday: 57 °F (at 2:00 PM)
Minimum temperature yesterday: 34 °F (at 2:30 AM)
Average temperature yesterday: 44 °F

Past Weeks' High & Low Weather Summary

High72 °F (Nov 11, 12:30 PM)100% (Nov 19, 3:00 AM)30.39 "Hg (Nov 19, 3:00 AM)
Low34 °F (Nov 16, 5:00 AM)11% (Nov 17, 2:30 PM)29.71 "Hg (Nov 11, 12:30 PM)
Average48 °F65%30.11 "Hg
* Reported Nov 11 5:30 AM — Nov 26 5:30 AM, Mashhad, Weather by CustomWeather, © 2015

Note: Actual official high and low records may vary slightly from our data, if they occured in-between our weather recording intervals... More about our weather records


Mashhad weather history for previous 24 hours

Time TempWeatherWind HumidityBarometerVisibility
5:30 AM
Thu, Nov 26
36 °FFog.5 mph81%30.18 "Hg2 mi
5:00 AM36 °FFog.5 mph87%30.18 "Hg2 mi
4:30 AM36 °FFog.5 mph87%30.18 "Hg2 mi
4:00 AM36 °FFog.5 mph81%30.18 "Hg2 mi
3:30 AM37 °FFog.5 mph81%30.18 "Hg3 mi
3:00 AM37 °FFog.5 mph81%30.18 "Hg2 mi
2:30 AM37 °FFog.5 mph87%30.18 "Hg2 mi
2:00 AM37 °FFog.No wind81%30.18 "Hg2 mi
1:30 AM37 °FFog.No wind87%30.18 "Hg2 mi
1:00 AM37 °FFog.5 mph81%30.18 "Hg2 mi
12:30 AM39 °FHaze.No wind75%30.21 "Hg2 mi
12:00 AM39 °FHaze.5 mph75%30.21 "Hg3 mi
11:30 PM
Wed, Nov 25
39 °FHaze.No wind70%30.21 "Hg3 mi
11:00 PM43 °FHaze.5 mph57%30.21 "Hg3 mi
10:30 PM41 °FHaze.5 mph70%30.21 "Hg3 mi
10:00 PM43 °FClear.5 mph66%30.24 "Hg4 mi
9:30 PM43 °FClear.No wind71%30.24 "Hg4 mi
9:00 PM43 °FClear.No wind76%30.24 "Hg4 mi
8:30 PM45 °FClear.5 mph66%30.24 "Hg4 mi
8:00 PM45 °FClear.5 mph71%30.24 "Hg4 mi
7:30 PM45 °FClear.5 mph71%30.24 "Hg4 mi
7:00 PM46 °FClear.5 mph71%30.24 "Hg4 mi
6:30 PM46 °FClear.No wind71%30.24 "Hg4 mi
6:00 PM46 °FClear.No wind71%30.24 "Hg4 mi
5:30 PM48 °FClear.5 mph66%30.21 "Hg4 mi
5:00 PM50 °FClear.5 mph58%30.21 "Hg10 mi
4:30 PM50 °FSunny.5 mph58%30.21 "Hg10 mi
4:00 PM54 °FSunny.5 mph47%30.21 "Hg10 mi
3:30 PM55 °FClear.7 mph47%30.21 "Hg5 mi
3:00 PM57 °FClear.7 mph44%30.21 "Hg5 mi
2:30 PM57 °FClear.5 mph41%30.21 "Hg4 mi
2:00 PM57 °FClear.5 mph48%30.24 "Hg4 mi
1:30 PM55 °FClear.5 mph51%30.24 "Hg4 mi
1:00 PM55 °FClear.5 mph47%30.24 "Hg4 mi
12:30 PM54 °FHaze.5 mph58%30.27 "Hg3 mi
12:00 PM52 °FHaze.No wind62%30.27 "Hg2 mi
11:30 AM50 °FFog.7 mph71%30.27 "Hg2 mi
10:30 AM46 °FFog.7 mph82%30.30 "Hg2 mi
10:00 AM45 °FFog.No wind87%30.33 "Hg1 mi
9:30 AM43 °FFog.5 mph100%30.33 "Hg1 mi
9:00 AM39 °FFog.5 mph100%30.33 "Hg1 mi
8:30 AM37 °FFog.5 mph100%N/A1 mi
7:30 AM37 °FFog.5 mph100%30.33 "Hg1 mi
7:00 AM36 °FFog.5 mph100%30.30 "Hg1 mi
6:30 AM36 °FFog.No wind100%30.30 "Hg1 mi
6:00 AM36 °FFog.5 mph100%30.30 "Hg1 mi
Weather by CustomWeather, © 2015

See weather overviewHow to use our weather pages